AFL1000 UUEE-UMKK

Flight info

Callsign AFL1000
Flight time N/A
Altitude 36000
Route TOKNU3F TOKNU L4 NUDKO T561 INBAP L263 BESNO M60 ATLUM DCT PISIS DCT ARANS/N0444F360 DCT PIDIN DCT PISIM DCT PIRUX DCT PIVAX/N0440F370 DCT GARSO DCT AGONA DCT TURIP TURIP3G
Aircraft B738/M-SDE2E3FGHIRWXY/LB1

Departure

Time 2026-05-01 13:01
Airport Sheremetyevo International Airport (UUEE)

Arrival

Time N/A
Airport Khrabrovo Airport (UMKK)
Time Latitude Longitude Altitude Speed Heading
2026-05-01 12:40 55.97806 37.41889 639 ft 0 kts 303°
2026-05-01 12:52 55.97801 37.41902 638 ft 2 kts 303°
2026-05-01 12:53 55.97784 37.41946 638 ft 2 kts 303°
2026-05-01 12:53 55.97776 37.41969 638 ft 2 kts 303°
2026-05-01 12:53 55.97767 37.41991 638 ft 2 kts 303°
2026-05-01 12:54 55.97759 37.42013 638 ft 2 kts 303°
2026-05-01 12:54 55.97752 37.42063 638 ft 2 kts 256°
2026-05-01 12:54 55.97757 37.42088 638 ft 2 kts 249°
2026-05-01 12:55 55.97766 37.42138 638 ft 2 kts 251°
2026-05-01 12:55 55.97771 37.42163 638 ft 2 kts 252°
2026-05-01 12:55 55.97773 37.42178 639 ft 0 kts 251°
2026-05-01 12:57 55.97771 37.42165 638 ft 4 kts 245°
2026-05-01 12:57 55.97646 37.41928 638 ft 25 kts 255°
2026-05-01 12:57 55.97592 37.41575 638 ft 30 kts 256°
2026-05-01 12:58 55.97544 37.41227 638 ft 27 kts 258°
2026-05-01 12:58 55.97493 37.40913 638 ft 26 kts 255°
2026-05-01 12:58 55.97448 37.40602 638 ft 25 kts 256°
2026-05-01 12:59 55.97363 37.40039 638 ft 21 kts 255°
2026-05-01 12:59 55.97281 37.39906 638 ft 16 kts 165°
2026-05-01 12:59 55.97194 37.40089 638 ft 0 kts 75°
2026-05-01 13:00 55.97395 37.41423 639 ft 129 kts 73°
2026-05-01 13:00 55.97662 37.43285 774 ft 173 kts 73°
2026-05-01 13:01 55.98282 37.47713 2199 ft 200 kts 73°
2026-05-01 13:01 55.98651 37.50223 2603 ft 222 kts 73°
2026-05-01 13:01 55.99449 37.55963 3976 ft 245 kts 73°
2026-05-01 13:02 55.99856 37.58874 4843 ft 246 kts 71°
2026-05-01 13:07 56.22120 37.03180 16567 ft 383 kts 296°
2026-05-01 13:07 56.23050 36.98739 17088 ft 385 kts 296°
2026-05-01 13:07 56.24001 36.94175 17491 ft 390 kts 297°
2026-05-01 13:08 56.24968 36.89657 18041 ft 390 kts 297°
2026-05-01 13:08 56.25971 36.85115 18442 ft 394 kts 298°
2026-05-01 13:08 56.27008 36.80542 18930 ft 396 kts 298°
2026-05-01 13:08 56.28042 36.75950 19355 ft 399 kts 298°
2026-05-01 13:09 56.29068 36.71265 19842 ft 401 kts 298°
2026-05-01 13:09 56.30063 36.66600 20211 ft 406 kts 298°
2026-05-01 13:09 56.31077 36.61869 20715 ft 406 kts 298°